Ogallala, NE

11:12 PM MDT on April 21, 2018 (GMT -0600)
Searle

Weather History for KOGA - February, 2014

Change the Weather History Date:

Thursday, February 6, 2014

  Actual Average Record
Temperature  
Mean Temperature -8 °F -  
Max Temperature 5 °F 37 °F 66 °F (2009)
Min Temperature -22 °F 10 °F -22 °F (2014)
Degree Days  
Heating Degree Days 74    
Moisture  
Dew Point -11 °F    
Average Humidity 72    
Maximum Humidity 79    
Minimum Humidity 65    
Precipitation  
Precipitation 0.00 in - - ()
Sea Level Pressure  
Sea Level Pressure 30.28 in    
Wind  
Wind Speed 3 mph (SSW)    
Max Wind Speed 9 mph    
Max Gust Speed -    
Visibility 7 miles    
Events Snow    
Averages and records for this station are not official NWS values.
T = Trace of Precipitation, MM = Missing Value Source: NWS Daily Summary

Daily Weather History Graph

Daily Weather History Graph

Search for Another Location

Airport or City:

Astronomy

Feb. 06, 2014 Rise Set
Actual Time 6:52 AM MST 5:10 PM MST
Civil Twilight 6:23 AM MST 5:39 PM MST
Nautical Twilight 5:51 AM MST 6:11 PM MST
Astronomical Twilight 5:19 AM MST 6:43 PM MST
Moon 10:43 AM MST (2/6) 12:10 AM MST (2/6)
Length of Visible Light 11h 15m
Length of Day
10h 17m
Waxing Crescent, 50% of the Moon is Illuminated
Feb 6
Waxing Crescent
Feb 6
First Quarter
Feb 14
Full
Feb 22
Last Quarter
Mar 1
New

Hourly Weather History & Observations

Time (MST) Temp. Windchill Dew Point Humidity Pressure Visibility Wind Dir Wind Speed Gust Speed Precip Events Conditions
12:15 AM -20.4 °F -31.1 °F -26.9 °F 72% 30.44 in 10.0 mi West 3.5 mph - N/A   Clear
12:35 AM -21.8 °F -32.8 °F -28.1 °F 73% 30.44 in 10.0 mi West 3.5 mph - N/A   Clear
12:55 AM -21.1 °F -34.5 °F -27.6 °F 72% 30.44 in 10.0 mi WSW 4.6 mph - N/A   Clear
1:15 AM -21.8 °F - -28.3 °F 72% 30.43 in 10.0 mi Calm Calm - N/A   Clear
1:35 AM -21.3 °F - -27.9 °F 71% 30.43 in 10.0 mi Calm Calm - N/A   Scattered Clouds
1:55 AM -22.9 °F - -29.7 °F 70% 30.43 in 10.0 mi Calm Calm - N/A   Scattered Clouds
2:15 AM -22.9 °F - -29.7 °F 70% 30.43 in 10.0 mi Calm Calm - N/A   Mostly Cloudy
2:35 AM -22.7 °F -38.5 °F -29.4 °F 71% 30.42 in 10.0 mi WSW 5.8 mph - N/A   Overcast
2:55 AM -19.3 °F -29.9 °F -25.8 °F 72% 30.41 in 10.0 mi West 3.5 mph - N/A   Overcast
3:15 AM -18.2 °F -28.7 °F -24.7 °F 72% 30.41 in 7.0 mi West 3.5 mph - N/A   Overcast
3:35 AM -17.1 °F -27.4 °F -23.8 °F 72% 30.41 in 5.0 mi West 3.5 mph - N/A Snow Light Snow
3:55 AM -16.2 °F - -22.7 °F 72% 30.41 in 4.0 mi Calm Calm - N/A Snow Light Snow
4:15 AM -15.2 °F -25.2 °F -21.3 °F 74% 30.41 in 5.0 mi West 3.5 mph - N/A Snow Light Snow
4:35 AM -14.3 °F - -20.6 °F 73% 30.41 in 5.0 mi Calm Calm - N/A Snow Light Snow
4:55 AM -13.5 °F - -19.7 °F 74% 30.40 in 4.0 mi Calm Calm - N/A Snow Light Snow
5:15 AM -13.4 °F - -19.7 °F 73% 30.40 in 3.0 mi Calm Calm - N/A Snow Light Snow
5:35 AM -13.0 °F - -19.3 °F 73% 30.40 in 7.0 mi Calm Calm - N/A Snow Light Snow
5:55 AM -12.3 °F - -18.4 °F 74% 30.39 in 7.0 mi Calm Calm - N/A Snow Light Snow
6:15 AM -11.6 °F - -17.9 °F 74% 30.39 in 5.0 mi Calm Calm - N/A Snow Light Snow
6:35 AM -11.4 °F - -17.7 °F 74% 30.38 in 2.5 mi Calm Calm - N/A Snow Light Snow
6:55 AM -11.7 °F - -17.9 °F 74% 30.39 in 1.8 mi Calm Calm - N/A Snow Light Snow
7:15 AM -11.6 °F - -17.5 °F 75% 30.38 in 3.0 mi Calm Calm - N/A Snow Light Snow
7:35 AM -11.2 °F - -17.5 °F 74% 30.38 in 2.0 mi Calm Calm - N/A Snow Light Snow
7:55 AM -10.8 °F - -16.8 °F 75% 30.38 in 1.8 mi Calm Calm - N/A Snow Light Snow
8:15 AM -10.3 °F - -16.1 °F 76% 30.38 in 0.5 mi Calm Calm - N/A Snow Light Snow
8:35 AM -9.2 °F - -15.0 °F 76% 30.38 in 1.2 mi Calm Calm - N/A Snow Light Snow
8:55 AM -8.3 °F - -14.1 °F 76% 30.38 in 0.8 mi Calm Calm - N/A Snow Light Snow
9:15 AM -6.5 °F - -12.3 °F 76% 30.37 in 1.0 mi Calm Calm - N/A Snow Light Snow
9:35 AM -5.6 °F - -11.2 °F 77% 30.36 in 1.2 mi Calm Calm - N/A Snow Light Snow
9:55 AM -2.4 °F -12.7 °F -8.5 °F 75% 30.35 in 4.0 mi South 4.6 mph - N/A Snow Light Snow
10:15 AM -1.3 °F -13.1 °F -8.0 °F 73% 30.35 in 4.0 mi South 5.8 mph - N/A   Haze
10:35 AM 0.5 °F -13.6 °F -7.4 °F 69% 30.34 in 4.0 mi SSW 8.1 mph - N/A   Haze
10:55 AM 1.0 °F -11.7 °F -7.1 °F 69% 30.34 in 3.0 mi South 6.9 mph - N/A   Haze
11:15 AM 1.4 °F -11.3 °F -6.9 °F 68% 30.32 in 7.0 mi South 6.9 mph - N/A   Scattered Clouds
11:35 AM 2.1 °F -9.0 °F -6.5 °F 67% 30.31 in 10.0 mi South 5.8 mph - N/A   Scattered Clouds
11:55 AM 2.3 °F -8.8 °F -6.7 °F 66% 30.29 in 10.0 mi South 5.8 mph - N/A   Clear
12:15 PM 2.8 °F -8.2 °F -6.3 °F 66% 30.28 in 10.0 mi South 5.8 mph - N/A   Clear
12:30 PM 2.8 °F -9.5 °F -6.3 °F 66% 30.26 in 10.0 mi South 6.9 mph - N/A   Mostly Cloudy
12:55 PM 3.6 °F -8.7 °F -5.8 °F 65% 30.24 in 10.0 mi South 6.9 mph - N/A   Overcast
1:15 PM 3.2 °F -9.1 °F -5.8 °F 66% 30.23 in 10.0 mi SSW 6.9 mph - N/A   Overcast
1:35 PM 4.1 °F -3.2 °F -4.9 °F 66% 30.23 in 10.0 mi SSW 3.5 mph - N/A   Overcast
1:55 PM 4.5 °F -8.7 °F -4.7 °F 66% 30.22 in 10.0 mi South 8.1 mph - N/A   Overcast
2:15 PM 4.6 °F -6.0 °F -4.5 °F 66% 30.22 in 10.0 mi SSW 5.8 mph - N/A   Overcast
2:35 PM 4.6 °F -7.4 °F -4.4 °F 66% 30.21 in 10.0 mi South 6.9 mph - N/A   Overcast
2:55 PM 5.4 °F -3.6 °F -3.6 °F 66% 30.20 in 10.0 mi SSW 4.6 mph - N/A   Overcast
3:15 PM 5.4 °F -3.6 °F -3.1 °F 68% 30.19 in 4.0 mi South 4.6 mph - N/A   Haze
3:35 PM 5.4 °F -7.6 °F -2.7 °F 69% 30.19 in 4.0 mi South 8.1 mph - N/A   Haze
3:55 PM 5.5 °F -6.3 °F -3.1 °F 68% 30.18 in 10.0 mi SSW 6.9 mph - N/A   Overcast
4:15 PM 5.0 °F -8.1 °F -2.2 °F 72% 30.18 in 2.0 mi South 8.1 mph - N/A Snow Light Snow
4:35 PM 4.8 °F -7.1 °F -2.2 °F 73% 30.17 in 3.0 mi South 6.9 mph - N/A Snow Light Snow
4:55 PM 4.6 °F -7.4 °F -1.7 °F 75% 30.17 in 3.0 mi South 6.9 mph - N/A Snow Light Snow
5:15 PM 4.6 °F -7.4 °F -1.7 °F 75% 30.17 in 2.5 mi South 6.9 mph - N/A Snow Light Snow
5:35 PM 4.6 °F -6.0 °F -1.8 °F 75% 30.16 in 7.0 mi South 5.8 mph - N/A   Overcast
5:55 PM 4.6 °F -4.5 °F -2.2 °F 73% 30.16 in 5.0 mi South 4.6 mph - N/A Snow Light Snow
6:15 PM 4.3 °F -10.0 °F -2.7 °F 73% 30.16 in 7.0 mi South 9.2 mph - N/A   Overcast
6:35 PM 3.4 °F -10.0 °F -3.8 °F 72% 30.16 in 10.0 mi South 8.1 mph - N/A   Overcast
6:55 PM 2.3 °F -10.2 °F -4.9 °F 72% 30.16 in 10.0 mi South 6.9 mph - N/A   Overcast
7:15 PM 1.4 °F -9.9 °F -5.3 °F 74% 30.15 in 10.0 mi South 5.8 mph - N/A   Overcast
7:35 PM 1.6 °F -8.0 °F -5.1 °F 74% 30.14 in 10.0 mi South 4.6 mph - N/A   Overcast
7:55 PM 1.4 °F -6.2 °F -5.1 °F 74% 30.14 in 10.0 mi South 3.5 mph - N/A   Mostly Cloudy
8:15 PM 1.8 °F - -4.7 °F 74% 30.14 in 10.0 mi Calm Calm - N/A   Mostly Cloudy
8:35 PM 2.8 °F - -3.6 °F 74% 30.14 in 10.0 mi Calm Calm - N/A   Mostly Cloudy
8:55 PM 3.2 °F -4.2 °F -3.1 °F 75% 30.14 in 10.0 mi South 3.5 mph - N/A   Overcast
9:15 PM 3.0 °F -9.3 °F -2.7 °F 77% 30.13 in 7.0 mi South 6.9 mph - N/A Snow Light Snow
9:35 PM 3.0 °F -8.0 °F -2.7 °F 77% 30.13 in 10.0 mi South 5.8 mph - N/A   Overcast
9:55 PM 2.8 °F -6.6 °F -2.7 °F 78% 30.12 in 10.0 mi SSW 4.6 mph - N/A   Overcast
10:15 PM 3.0 °F -8.0 °F -2.6 °F 78% 30.11 in 7.0 mi South 5.8 mph - N/A Snow Light Snow
10:35 PM 3.2 °F -10.3 °F -2.2 °F 78% 30.10 in 7.0 mi South 8.1 mph - N/A Snow Light Snow
10:55 PM 3.0 °F -10.5 °F -2.4 °F 78% 30.09 in 10.0 mi SSW 8.1 mph - N/A   Overcast
11:15 PM 3.0 °F -8.0 °F -2.4 °F 78% 30.09 in 10.0 mi South 5.8 mph - N/A   Overcast
11:35 PM 3.0 °F -6.4 °F -2.4 °F 78% 30.07 in 10.0 mi SSW 4.6 mph - N/A   Overcast
11:55 PM 3.0 °F -4.4 °F -2.2 °F 79% 30.08 in 10.0 mi West 3.5 mph - N/A   Overcast